Regional Weather Roundup
Issued by NWS

Home | Current Version | Previous Version | Graphics & Text | Print | Product List | Glossary On
Versions: 1 2 3 4 5 6 7 8 9 10 11 12 13 14 15 16 17 18 19 20 21 22 23 24 25 26 27 28 29 30 31 32 33 34 35 36 37 38 39 40 41 42 43 44 45 46 47 48 49 50
000
ASUS45 KBOU 020007
RWRCO

WEATHER ROUNDUP FOR COLORADO
NATIONAL WEATHER SERVICE DENVER/BOULDER CO
600 PM MDT WED OCT 01 2014

NOTE: "FAIR" INDICATES FEW OR NO CLOUDS BELOW 12000 FEET WITH NO
SIGNIFICANT WEATHER AND/OR OBSTRUCTIONS TO VISIBILITY.

COZ001>005-013-030-031-020100-
...NORTHWEST COLORADO...

CITY           SKY/WX    TMP DP  RH WIND       PRES   REMARKS
CRAIG          CLOUDY    41  36  82 S8        30.08S
HAYDEN         CLOUDY    37  34  87 W6        30.08R
MEEKER         CLOUDY    41  36  82 SE9       30.08R
MOUNT WERNER   NOT AVBL
STEAMBOAT SPGS CLOUDY    37  35  96 SW7       30.07R
WALDEN         CLOUDY    34  32  93 NW10      30.05R WCI  26
$$

COZ006>008-011-020100-
...WEST CENTRAL VALLEYS...

CITY           SKY/WX    TMP DP  RH WIND       PRES   REMARKS
GRAND JUNCTION PTSUNNY   51  45  79 S10       30.03R
MONTROSE       CLOUDY    47  43  86 SE10      30.07R
EAGLE          MOCLDY    48  37  66 NW14G23   30.02R
RIFLE          RAIN      44  40  85 W8        30.07R FOG
DELTA          RAIN      51  47  87 E7        30.03S
NUCLA          PTSUNNY   54  41  62 NW5       30.07S
$$

COZ017>023-064>068-020100-
...SOUTHWEST COLORADO...

CITY           SKY/WX    TMP DP  RH WIND       PRES   REMARKS
DURANGO        PTCLDY    58  33  39 NW16G23   30.00S
CORTEZ         MOSUNNY   60  41  49 N13       30.00R
PAGOSA SPRINGS LGT RAIN  52  40  64 CALM      30.05R
TELLURIDE      MOCLDY   N/A N/A N/A W12G17    30.12R
WOLF CREEK PAS CLOUDY    30  30 100 SW20G25   30.18S FOG     WCI  18
$$

COZ009-010-012-014-032>034-037-058>063-020100-
...CENTRAL COLORADO...

CITY           SKY/WX    TMP DP  RH WIND       PRES   REMARKS
ASPEN          CLOUDY    41  36  82 SW6       30.04S
BUENA VISTA    CLOUDY    51  28  40 NW13      29.99R
COPPER MTN     CLOUDY    34  30  86 SW6       30.14R FOG     WCI  29
BERTHOUD PASS  FOG       27  23  86 W13G21    30.16R VSB 1/4 WCI  16
COTTONWOOD PAS PTCLDY    43  30  61 N6        30.05R
GUNNISON       MOCLDY    45  34  65 SW16G28   30.07R
KREMMLING      CLOUDY    43  34  70 CALM      30.04R
LEADVILLE      MOCLDY    41  26  55 NW10G18   30.04S
SALIDA         PTCLDY    55  27  34 W22G28    30.06R
SUNLIGHT       SNOW      32  32 100 W5        30.13R VSB 1/4 WCI  27
WILKERSON PASS NOT AVBL
$$

COZ069>075-020100-
...SAN LUIS VALLEY/SANGRE DE CRISTO MOUNTAINS...

CITY           SKY/WX    TMP DP  RH WIND       PRES   REMARKS
ALAMOSA        CLOUDY    52  37  56 NE7       30.02R
LA VETA PASS   MOCLDY    41  30  65 SW6       30.09R
SAGUACHE       CLOUDY    50  36  57 CALM      30.02S
$$

COZ035-036-038>040-020100-
...NORTHERN COLORADO FRONT RANGE...

CITY           SKY/WX    TMP DP  RH WIND       PRES   REMARKS
DENVER INTL AP MOCLDY    46  42  86 N18       29.97R
DMNS CITY PARK   N/A     47  40  78 N15       29.98R
AURORA         CLOUDY    44  44  99 N14       29.99R
FRONT RANGE AP NOT AVBL
ERIE MUNI ARPT CLOUDY    47  40  75 N10       29.97R
BOULDER MUN AP CLOUDY    48  41  76 NE8       29.97R
CENTENNIAL     CLOUDY    45  43  93 N16G24    29.97R
BROOMFIELD     MOCLDY    46  41  81 N15       29.99R
FORT COLLINS   MOCLDY    48  37  66 NE15      29.97S
LONGMONT       CLOUDY    51  39  65 N9        29.99R HAZE
$$

COZ041-046-047-076>085-087-088-020100-
...PIKES PEAK/PALMER DIVIDE AND SOUTHERN FOOTHILLS...

CITY           SKY/WX    TMP DP  RH WIND       PRES   REMARKS
COLO. SPRINGS  MOCLDY    58  37  45 N6        29.91R
A. F. ACADEMY  MOCLDY    57  36  45 NW3       29.91S
ELLICOTT       NOT AVBL
FALCON         CLOUDY    55  34  45 NW8       29.94R
FORT CARSON    CLOUDY    61  38  43 NE6       29.89R
LIMON          CLOUDY    44  41  89 N31G45    29.91R
MONUMENT HILL  LGT RAIN  41  41 100 N14       29.97R VSB 1/4
TRINIDAD       PTCLDY    70  32  24 W8        29.84R
$$

COZ042>045-048>051-090-091-020100-
...NORTHEAST COLORADO...

CITY           SKY/WX    TMP DP  RH WIND       PRES   REMARKS
GREELEY ARPT   CLOUDY    45  37  76 N18       29.97R
AKRON          LGT RAIN  45  43  93 NW36G47   29.93R
BURLINGTON     PTCLDY    70  39  32 SE6       29.81R
WRAY           PTCLDY    70  40  33 E8        29.79S
STERLING       LGT RAIN  50  48  93 NW26G43   29.89R
HOLYOKE        PTCLDY    64  45  48 E7        29.80F
FORT MORGAN    RAIN      45  42  88 N24G33    29.97R
$$

COZ086-089-092>099-020100-
...SOUTHEAST COLORADO...

CITY           SKY/WX    TMP DP  RH WIND       PRES   REMARKS
PUEBLO         CLOUDY    66  37  34 W21G28    29.83R
LA JUNTA       MOCLDY    75  34  22 SE6       29.77S
LAMAR          MOCLDY    74  41  30 E7        29.74S
SPRINGFIELD      N/A     73  34  23 S13       29.79R
$$


USA.gov is the U.S. government's official web portal to all federal, state and local government web resources and services.